Weather History for KBWD - January, 2014

Change the Weather History Date:

Tuesday, January 7, 2014

  Actual Average (KABI) Record (KABI)
Temperature  
Mean Temperature 32 °F 44 °F  
Max Temperature 48 °F 56 °F 78 °F (2006)
Min Temperature 15 °F 33 °F 3 °F (1912)
Degree Days  
Heating Degree Days 34 21  
Month to date heating degree days 147  
Since 1 July heating degree days 1192  
Cooling Degree Days 0 0  
Month to date cooling degree days 0  
Year to date cooling degree days 0  
Moisture  
Dew Point 13 °F    
Average Humidity 51    
Maximum Humidity 86    
Minimum Humidity 22    
Precipitation  
Precipitation 0.00 in 0.03 in 1.92 in (1961)
Month to date precipitation 0.21  
Year to date precipitation 0.21  
Sea Level Pressure  
Sea Level Pressure 30.39 in    
Wind  
Wind Speed 6 mph (South)    
Max Wind Speed 18 mph    
Max Gust Speed 24 mph    
Visibility 10 miles    
Events      
T = Trace of Precipitation, MM = Missing Value Source: NWS Daily Summary

Daily Weather History Graph

Daily Weather History Graph

Search for Another Location

Airport or City:

Trip Planner

Search our weather history database for the weather conditions in past years. The results will help you decide how hot, cold, wet, or windy it might be!

Date:

Astronomy

Jan. 07, 2014 Rise Set
Actual Time 7:36 AM CST 5:47 PM CST
Civil Twilight 7:10 AM CST 6:14 PM CST
Nautical Twilight 6:39 AM CST 6:44 PM CST
Astronomical Twilight 6:10 AM CST 7:14 PM CST
Moon 11:53 AM CST No Moon Set
Length of Visible Light 11h 04m
Length of Day
10h 11m
Waxing Crescent, 46% of the Moon is Illuminated
Jan 7
Waxing Crescent
Jan 7
First Quarter
Jan 15
Full
Jan 23
Last Quarter
Jan 30
New

Hourly Weather History & Observations

Time (CST) Temp. Windchill Dew Point Humidity Pressure Visibility Wind Dir Wind Speed Gust Speed Precip Events Conditions
12:15 AM 19.4 °F 14.3 °F 10.4 °F 68% 30.54 in 10.0 mi SSE 3.5 mph - N/A   Unknown
12:35 AM 19.4 °F - 12.2 °F 74% 30.53 in 10.0 mi Calm Calm - N/A   Unknown
12:55 AM 19.4 °F - 8.6 °F 63% 30.52 in 10.0 mi Calm Calm - N/A   Unknown
1:15 AM 19.4 °F - 8.6 °F 63% 30.52 in 10.0 mi Calm Calm - N/A   Unknown
1:35 AM 17.6 °F 12.3 °F 8.6 °F 68% 30.52 in 10.0 mi East 3.5 mph - N/A   Unknown
1:55 AM 17.6 °F 12.3 °F 10.4 °F 73% 30.52 in 10.0 mi ESE 3.5 mph - N/A   Unknown
2:15 AM 17.6 °F - 10.4 °F 73% 30.52 in 10.0 mi Calm Calm - N/A   Unknown
2:35 AM 17.6 °F - 10.4 °F 73% 30.52 in 10.0 mi Calm Calm - N/A   Unknown
2:55 AM 17.6 °F - 10.4 °F 73% 30.52 in 10.0 mi Calm Calm - N/A   Unknown
3:15 AM 17.6 °F - 10.4 °F 73% 30.51 in 10.0 mi Calm Calm - N/A   Unknown
3:35 AM 15.8 °F - 10.4 °F 79% 30.51 in 10.0 mi Calm Calm - N/A   Unknown
3:55 AM 15.8 °F - 10.4 °F 79% 30.52 in 10.0 mi Calm Calm - N/A   Unknown
4:15 AM 15.8 °F - 10.4 °F 79% 30.51 in 10.0 mi Calm Calm - N/A   Unknown
4:35 AM 15.8 °F - 10.4 °F 79% 30.51 in 10.0 mi Calm Calm - N/A   Unknown
4:55 AM 15.8 °F - 10.4 °F 79% 30.51 in 10.0 mi Calm Calm - N/A   Unknown
5:15 AM 15.8 °F - 12.2 °F 86% 30.50 in 10.0 mi Calm Calm - N/A   Unknown
5:35 AM 15.8 °F - 10.4 °F 79% 30.50 in 10.0 mi Calm Calm - N/A   Unknown
5:55 AM 17.6 °F - 10.4 °F 73% 30.50 in 10.0 mi Calm Calm - N/A   Unknown
6:15 AM 15.8 °F - 10.4 °F 79% 30.50 in 10.0 mi Calm Calm - N/A   Unknown
6:35 AM 17.6 °F - 10.4 °F 73% 30.50 in 10.0 mi Calm Calm - N/A   Unknown
6:55 AM 15.8 °F - 12.2 °F 86% 30.49 in 10.0 mi Calm Calm - N/A   Unknown
7:15 AM 15.8 °F - 12.2 °F 86% 30.49 in 10.0 mi Calm Calm - N/A   Unknown
7:35 AM 15.8 °F - 10.4 °F 79% 30.49 in 10.0 mi Calm Calm - N/A   Unknown
7:55 AM 17.6 °F 12.3 °F 10.4 °F 73% 30.49 in 10.0 mi South 3.5 mph - N/A   Unknown
8:15 AM 19.4 °F 12.8 °F 10.4 °F 68% 30.49 in 10.0 mi SSE 4.6 mph - N/A   Unknown
8:35 AM 21.2 °F 12.6 °F 12.2 °F 68% 30.49 in 10.0 mi South 6.9 mph - N/A   Unknown
8:55 AM 23.0 °F 13.1 °F 12.2 °F 63% 30.49 in 10.0 mi South 9.2 mph - N/A   Unknown
9:15 AM 24.8 °F 16.9 °F 14.0 °F 64% 30.49 in 10.0 mi South 6.9 mph - N/A   Unknown
9:35 AM 26.6 °F 17.5 °F 14.0 °F 59% 30.49 in 10.0 mi South 9.2 mph - N/A   Unknown
9:55 AM 28.4 °F 19.7 °F 14.0 °F 55% 30.49 in 10.0 mi South 9.2 mph - N/A   Unknown
10:15 AM 32.0 °F 24.8 °F 12.2 °F 44% 30.48 in 10.0 mi South 8.1 mph - N/A   Unknown
10:35 AM 32.0 °F 23.6 °F 12.2 °F 44% 30.48 in 10.0 mi SSW 10.4 mph - N/A   Unknown
10:55 AM 32.0 °F 23.0 °F 14.0 °F 48% 30.47 in 10.0 mi SSW 11.5 mph - N/A   Unknown
11:15 AM 35.6 °F 28.0 °F 14.0 °F 41% 30.46 in 10.0 mi South 10.4 mph - N/A   Unknown
11:35 AM 37.4 °F 31.4 °F 14.0 °F 38% 30.45 in 10.0 mi South 8.1 mph - N/A   Unknown
11:55 AM 37.4 °F 29.8 °F 14.0 °F 38% 30.43 in 10.0 mi SSW 11.5 mph - N/A   Unknown
12:15 PM 39.2 °F 32.5 °F 14.0 °F 36% 30.41 in 10.0 mi South 10.4 mph 16.1 mph N/A   Unknown
12:35 PM 41.0 °F 34.3 °F 14.0 °F 33% 30.39 in 10.0 mi South 11.5 mph 18.4 mph N/A   Unknown
12:55 PM 41.0 °F 33.5 °F 14.0 °F 33% 30.36 in 10.0 mi SSE 13.8 mph 18.4 mph N/A   Unknown
1:15 PM 42.8 °F 35.4 °F 12.2 °F 29% 30.34 in 10.0 mi South 15.0 mph 19.6 mph N/A   Unknown
1:35 PM 44.6 °F 38.1 °F 14.0 °F 29% 30.33 in 10.0 mi South 13.8 mph 18.4 mph N/A   Unknown
1:55 PM 44.6 °F 37.8 °F 12.2 °F 27% 30.32 in 10.0 mi South 15.0 mph 20.7 mph N/A   Unknown
2:15 PM 44.6 °F 37.2 °F 12.2 °F 27% 30.31 in 10.0 mi South 17.3 mph 23.0 mph N/A   Unknown
2:35 PM 46.4 °F 39.8 °F 12.2 °F 25% 30.30 in 10.0 mi South 16.1 mph 23.0 mph N/A   Unknown
2:55 PM 46.4 °F 40.1 °F 10.4 °F 23% 30.29 in 10.0 mi South 15.0 mph 24.2 mph N/A   Unknown
3:15 PM 46.4 °F 40.1 °F 12.2 °F 25% 30.29 in 10.0 mi South 15.0 mph 24.2 mph N/A   Unknown
3:35 PM 46.4 °F 40.7 °F 10.4 °F 23% 30.29 in 10.0 mi South 12.7 mph 21.9 mph N/A   Unknown
3:55 PM 48.2 °F - 10.4 °F 22% 30.28 in 10.0 mi SSE 13.8 mph 23.0 mph N/A   Unknown
4:15 PM 48.2 °F - 10.4 °F 22% 30.27 in 10.0 mi South 18.4 mph - N/A   Unknown
4:35 PM 48.2 °F - 10.4 °F 22% 30.27 in 10.0 mi South 15.0 mph 21.9 mph N/A   Unknown
4:55 PM 46.4 °F 40.4 °F 12.2 °F 25% 30.26 in 10.0 mi SSE 13.8 mph - N/A   Unknown
5:15 PM 46.4 °F 40.7 °F 12.2 °F 25% 30.25 in 10.0 mi SSE 12.7 mph 19.6 mph N/A   Unknown
5:35 PM 44.6 °F 38.8 °F 14.0 °F 29% 30.24 in 10.0 mi SSE 11.5 mph - N/A   Unknown
5:55 PM 44.6 °F 39.2 °F 14.0 °F 29% 30.24 in 10.0 mi SSE 10.4 mph - N/A   Unknown
6:15 PM 42.8 °F 36.2 °F 15.8 °F 34% 30.24 in 10.0 mi SSE 12.7 mph - N/A   Unknown
6:35 PM 42.8 °F 36.2 °F 15.8 °F 34% 30.24 in 10.0 mi SSE 12.7 mph - N/A   Unknown
6:55 PM 41.0 °F 33.9 °F 17.6 °F 39% 30.23 in 10.0 mi SSE 12.7 mph - N/A   Unknown
7:15 PM 41.0 °F 34.3 °F 17.6 °F 39% 30.23 in 10.0 mi SSE 11.5 mph - N/A   Unknown
7:35 PM 41.0 °F 33.9 °F 19.4 °F 42% 30.24 in 10.0 mi South 12.7 mph - N/A   Unknown
7:55 PM 39.2 °F 31.2 °F 19.4 °F 45% 30.24 in 10.0 mi South 13.8 mph 20.7 mph N/A   Unknown
8:15 PM 39.2 °F 31.2 °F 17.6 °F 42% 30.25 in 10.0 mi South 13.8 mph 19.6 mph N/A   Unknown
8:35 PM 39.2 °F 31.2 °F 15.8 °F 39% 30.25 in 10.0 mi South 13.8 mph 20.7 mph N/A   Unknown
8:55 PM 39.2 °F 32.0 °F 15.8 °F 39% 30.25 in 10.0 mi South 11.5 mph - N/A   Unknown
9:15 PM 37.4 °F 28.9 °F 15.8 °F 41% 30.25 in 10.0 mi South 13.8 mph - N/A   Unknown
9:35 PM 37.4 °F 29.8 °F 15.8 °F 41% 30.25 in 10.0 mi South 11.5 mph - N/A   Unknown
9:55 PM 37.4 °F 30.3 °F 17.6 °F 45% 30.25 in 10.0 mi South 10.4 mph - N/A   Unknown
10:15 PM 37.4 °F 30.8 °F 17.6 °F 45% 30.25 in 10.0 mi South 9.2 mph - N/A   Unknown
10:35 PM 37.4 °F 31.4 °F 17.6 °F 45% 30.25 in 10.0 mi South 8.1 mph - N/A   Unknown
10:55 PM 39.2 °F 32.5 °F 19.4 °F 45% 30.24 in 10.0 mi South 10.4 mph - N/A   Unknown
11:15 PM 39.2 °F 32.0 °F 21.2 °F 49% 30.23 in 10.0 mi South 11.5 mph 18.4 mph N/A   Unknown
11:35 PM 39.2 °F 31.2 °F 23.0 °F 52% 30.23 in 10.0 mi South 13.8 mph 19.6 mph N/A   Unknown
11:55 PM 39.2 °F 30.5 °F 24.8 °F 56% 30.23 in 10.0 mi South 16.1 mph 21.9 mph N/A   Unknown